EW8445 Sea Isle City NJ US current weather conditions

sailwx.info

Wind from 281 at 0 knots gusting 1

Air temperature 5.0° C
Dewpoint 4.4° C

Last reported at 2019-Dec-09 17:46 UTC.
Time now 2019-Dec-09 18:23 UTC

Location: N 39°07' W 074°43'.
View on Google Maps.

See reports from other nearby stations

  
Tides and Currents Weather Stations Pressure Air Temp Water Temp Dewpoint Dewpoint Depression Visibility Wind Speed Wind Dir Waves Ship Positions
date/time (UTC)wind fromknots sea level pressurealtimeterstation pressurevisibilityair tempwater tempwave heightnotes
2019-Dec-09 18:00 277 5.6
2019-Dec-09 17:46 281 0 gusting 1 5.0
2019-Dec-09 17:30 287 5.0
2019-Dec-09 17:15 286 0 gusting 2 5.0
2019-Dec-09 17:00 294 5.0
2019-Dec-09 16:45 260 5.0
2019-Dec-09 16:30 273 0 gusting 1 5.0
2019-Dec-09 16:02 311 5.0
2019-Dec-09 15:47 311 5.0
2019-Dec-09 15:32 309 5.0
2019-Dec-09 15:16 309 4.4
2019-Dec-09 15:01 309 4.4
2019-Dec-09 14:46 309 4.4
2019-Dec-09 14:32 309 4.4
2019-Dec-09 14:16 309 4.4
2019-Dec-09 14:02 025 3.9
2019-Dec-09 13:46 026 3.9
2019-Dec-09 13:32 006 0 gusting 2 3.9
2019-Dec-09 13:15 051 0 gusting 2 3.9
2019-Dec-09 13:01 008 0 gusting 2 3.9
2019-Dec-09 12:46 337 3.9
2019-Dec-09 12:31 032 4.4
2019-Dec-09 12:16 032 4.4
2019-Dec-09 12:00 038 4.4
2019-Dec-09 11:45 090 3.9
2019-Dec-09 11:31 090 3.9
2019-Dec-09 11:16 090 3.3
2019-Dec-09 11:01 090 3.3
2019-Dec-09 10:45 090 3.9
2019-Dec-09 10:30 092 3.9
2019-Dec-09 10:15 015 3.9
2019-Dec-09 10:00 340 3.3
2019-Dec-09 09:45 011 3.9
2019-Dec-09 09:30 293 2.8
2019-Dec-09 09:15 333 2.8
2019-Dec-09 09:00 344 2.8
2019-Dec-09 08:45 344 2.8
2019-Dec-09 08:30 299 2.2
2019-Dec-09 08:15 299 2.8
2019-Dec-09 08:02 299 2.2
2019-Dec-09 07:47 027 2.8
2019-Dec-09 07:31 002 2.2
2019-Dec-09 07:16 001 2.2
2019-Dec-09 07:02 001 2.2
2019-Dec-09 06:46 002 2.2
2019-Dec-09 06:32 001 2.2
2019-Dec-09 06:16 002 1.7
2019-Dec-09 06:01 031 1.7
2019-Dec-09 05:46 034 1.1
2019-Dec-09 05:31 013 1.1
2019-Dec-09 05:16 011 0.6
2019-Dec-09 05:01 011 1.1
2019-Dec-09 04:45 036 1.1
2019-Dec-09 04:30 056 0.6
2019-Dec-09 04:15 335 -0.6
2019-Dec-09 04:01 272 -1.1
2019-Dec-09 03:46 272 -0.6
2019-Dec-09 03:30 063 -0.6
2019-Dec-09 03:15 064 -0.6
2019-Dec-09 03:00 353 -0.6
2019-Dec-09 02:45 353 -0.6
2019-Dec-09 02:30 353 -0.0
2019-Dec-09 02:15 353 -0.0
2019-Dec-09 02:00 353 -1.1
2019-Dec-09 01:46 352 -1.1
2019-Dec-09 01:30 354 -1.1
2019-Dec-09 01:15 025 -1.7
2019-Dec-09 01:00 025 -2.2
2019-Dec-09 00:45 045 -1.1
2019-Dec-09 00:30 356 -1.1
2019-Dec-09 00:15 355 -1.1
2019-Dec-09 00:00 356 -1.1
2019-Dec-08 23:45 101 -0.6
2019-Dec-08 23:30 104 -0.6
2019-Dec-08 23:15 104 -0.6
2019-Dec-08 23:00 105 -0.0
2019-Dec-08 22:45 108 1.1
2019-Dec-08 22:30 109 1.7
2019-Dec-08 22:15 128 2.2
2019-Dec-08 22:00 131 0 gusting 2 2.8
2019-Dec-08 21:45 120 2.8
2019-Dec-08 21:30 134 3.3
2019-Dec-08 21:17 165 3.3
2019-Dec-08 21:02 141 3.9
2019-Dec-08 20:47 210 1 gusting 5 3.9
2019-Dec-08 20:31 212 4.4
2019-Dec-08 20:17 274 0 gusting 4 4.4
2019-Dec-08 20:01 232 4 gusting 6 4.4
2019-Dec-08 19:46 190 2 gusting 6 5.0
2019-Dec-08 19:31 160 2 gusting 8 4.4
2019-Dec-08 19:16 244 2 gusting 7 4.4
2019-Dec-08 19:02 229 4 gusting 9 4.4
2019-Dec-08 18:47 207 6 gusting 9 4.4
2019-Dec-08 18:31 249 4 gusting 8 4.4
2019-Dec-08 18:16 261 2 gusting 6 3.9
2019-Dec-08 18:02 236 2 gusting 9 3.9
2019-Dec-08 17:46 174 5 gusting 9 3.3
2019-Dec-08 17:31 140 0 gusting 4 2.8
2019-Dec-08 17:15 206 2 gusting 4 2.2
2019-Dec-08 17:01 221 0 gusting 4 1.7
2019-Dec-08 16:46 189 2 gusting 6 1.1
2019-Dec-08 16:30 210 2 gusting 5 0.6
2019-Dec-08 16:15 249 1 gusting 4 0.6
2019-Dec-08 16:00 223 2 gusting 5 -0.0
2019-Dec-08 15:45 152 0 gusting 4 -0.6
2019-Dec-08 15:30 252 2 gusting 6 -1.1
2019-Dec-08 15:15 246 1 gusting 3 -1.1
2019-Dec-08 15:01 218 0 gusting 2 -1.7
2019-Dec-08 14:46 204 -1.7
2019-Dec-08 14:31 268 0 gusting 2 -2.2
2019-Dec-08 14:16 312 -3.3
2019-Dec-08 14:01 315 -3.9
2019-Dec-08 13:46 315 -5.6
2019-Dec-08 13:31 319 -5.6
2019-Dec-08 13:16 319 -6.7
2019-Dec-08 13:01 319 -6.7
2019-Dec-08 12:45 319 -7.2
2019-Dec-08 12:30 264 -7.2
2019-Dec-08 12:15 264 -7.2
2019-Dec-08 12:00 264 -7.2
2019-Dec-08 11:45 264 -7.8
2019-Dec-08 11:30 264 -8.3
2019-Dec-08 11:16 264 -8.3
2019-Dec-08 11:00 264 -8.3
2019-Dec-08 10:46 264 -8.3
2019-Dec-08 10:30 264 -7.8
2019-Dec-08 10:15 264 -7.8
2019-Dec-08 10:01 264 -7.8
2019-Dec-08 09:46 264 -7.8
2019-Dec-08 09:31 264 -7.2
2019-Dec-08 09:15 264 -7.2
2019-Dec-08 09:00 264 -6.1
2019-Dec-08 08:46 264 -7.2
2019-Dec-08 08:30 264 -7.2
2019-Dec-08 08:16 037 -6.7
2019-Dec-08 08:00 037 -7.2
2019-Dec-08 07:45 047 -6.7
2019-Dec-08 07:30 047 -7.2
2019-Dec-08 07:15 047 -7.2
2019-Dec-08 07:00 046 -7.2
2019-Dec-08 06:45 047 -6.7
2019-Dec-08 06:30 047 -6.7
2019-Dec-08 06:15 047 -6.7
2019-Dec-08 06:00 047 -6.1
2019-Dec-08 05:45 047 -6.1
2019-Dec-08 05:30 350 -6.7
2019-Dec-08 05:17 349 -6.7
2019-Dec-08 05:01 349 -6.1
2019-Dec-08 04:46 027 -5.6
2019-Dec-08 04:32 027 -5.6
2019-Dec-08 04:16 334 -5.6
2019-Dec-08 04:01 334 -5.6
2019-Dec-08 03:46 334 -5.6
2019-Dec-08 03:31 334 -6.1
2019-Dec-08 03:16 334 -6.1
2019-Dec-08 03:01 334 -5.6
2019-Dec-08 02:47 334 -5.6
2019-Dec-08 02:31 334 -5.6
2019-Dec-08 02:16 334 -5.6
2019-Dec-08 02:02 334 -4.4
2019-Dec-08 01:46 333 -5.0
2019-Dec-08 01:30 330 -4.4
2019-Dec-08 01:16 330 -4.4
2019-Dec-08 01:01 335 -3.9
2019-Dec-08 00:46 330 -3.9
2019-Dec-08 00:31 330 -3.3
2019-Dec-08 00:15 001 -2.8
2019-Dec-08 00:01 006 -1.7
2019-Dec-07 23:46 007 -0.6
2019-Dec-07 23:31 027 0 gusting 1 -0.0
2019-Dec-07 23:15 015 -2.2
2019-Dec-07 23:00 339 -2.8
2019-Dec-07 22:46 340 -1.7
2019-Dec-07 22:31 302 -1.7
2019-Dec-07 22:15 302 -0.6
2019-Dec-07 22:00 360 0.6
2019-Dec-07 21:45 359 2.2
2019-Dec-07 21:31 019 1 gusting 3 2.8
2019-Dec-07 21:16 348 0 gusting 5 3.9
2019-Dec-07 21:00 321 0 gusting 3 3.9
2019-Dec-07 20:45 321 4 gusting 6 3.3
2019-Dec-07 20:30 316 2 gusting 5 3.9
2019-Dec-07 20:15 280 2 gusting 6 3.9
2019-Dec-07 20:00 285 2 gusting 7 3.3
2019-Dec-07 19:45 320 5 gusting 10 3.3
2019-Dec-07 19:30 345 2 gusting 7 3.9
2019-Dec-07 19:15 349 4 gusting 7 3.3
2019-Dec-07 19:00 286 2 gusting 8 2.8
2019-Dec-07 18:45 335 4 gusting 9 3.3
2019-Dec-07 18:30 352 3 gusting 8 3.3
2019-Dec-07 18:15 343 4 gusting 9 3.3
2019-Dec-07 18:00 049 4 gusting 8 3.3